Regional Weather Roundup
Issued by NWS

Home | Current Version | Previous Version | Text Only | Print | Product List | Glossary Off
Versions: 1 2 3 4 5 6 7 8 9 10 11 12 13 14 15 16 17 18 19 20 21 22 23 24 25 26 27 28 29 30 31 32 33 34 35 36 37 38 39 40 41 42 43 44 45 46 47 48 49 50

000
ASUS45 KABQ 281410
RWRNM
WEATHER ROUNDUP FOR NEW MEXICO
NATIONAL WEATHER SERVICE ALBUQUERQUE NM
700 AM MST SUN DEC 28 2014

NOTE: "FAIR" MEANS FEW OR NO CLOUDS BELOW 12,000 FEET AGL WITH NO
       SIGNIFICANT WEATHER OR OBSTRUCTIONS TO VISION.

      THIS PRODUCT IS RELEASED AS TWO VERSIONS.  ONE VERSION NEAR
      THE TOP OF THE HOUR CONTAINING PRELIMINARY DATA FROM ALBUQUERQUE
      AND OTHER STATIONS.  A FINAL VERSION WITH ADDITIONAL DATA IS
      ISSUED ABOUT 10 MINUTES AFTER THE HOUR.

NMZ501-503-504-510>518-281500-
NORTHWEST PLATEAU/NORTHCENTRAL MOUNTAINS

CITY           SKY/WX    TMP DP  RH WIND       PRES   REMARKS
FARMINGTON     CLEAR      7   3  84 E6        30.21F WCI  -3
LOS ALAMOS     MOCLDY    10   7  90 CALM      30.12S
SANTA FE       PTCLDY    12   6  77 NW7       30.13F WCI   1
TAOS           PTCLDY    -6  -8  92 N3        30.14S
ANGEL FIRE     FAIR     -10 -14  82 NE5       30.05S WCI -21

$$
NMZ402-403-502-505>509-281500-
WESTCENTRAL MOUNTAINS/SOUTHWEST MOUNTAINS

CITY           SKY/WX    TMP DP  RH WIND       PRES   REMARKS
GALLUP         PTCLDY    -3  -8  79 CALM      30.20S
GRANTS         CLEAR      4   1  87 CALM      30.21F
SILVER CITY    CLEAR     19  12  73 NW10      30.23S WCI   8

$$
NMZ407-409-411-412-281500-
SOUTHERN DESERTS

CITY           SKY/WX    TMP DP  RH WIND       PRES   REMARKS
LORDSBURG      FAIR      19  16  86 S3        30.24F
DEMING         CLEAR     17  14  88 SW5       30.25S WCI  10
LAS CRUCES     CLEAR     21  16  82 CALM      30.25S
HOLLOMAN AFB   CLEAR     16  12  82 N2        30.24R
ALAMOGORDO     CLEAR     18  14  86 S3        30.24R
T OR C         CLEAR     17   6  62 NW3       30.21S

$$
NMZ519>523-281500-
CENTRAL VALLEYS/CENTRAL HIGHLANDS

CITY           SKY/WX    TMP DP  RH WIND       PRES   REMARKS
ALBUQUERQUE    PTCLDY    20   9  62 S3        30.21F
DOUBLE EAGLE   CLEAR     10   5  79 SW8       30.20S WCI  -1
MORIARTY ARPT  FAIR       9   4  80 N6        30.15S WCI  -1
CLINES CORNERS PTCLDY    10   4  76 NW23      30.05R WCI -10
BELEN          FAIR      12   7  81 NW5       30.23S WCI   4
SOCORRO        FAIR      12   6  76 CALM      30.24S

$$
NMZ524>526-539-540-281500-
SOUTHCENTRAL MOUNTAINS

CITY           SKY/WX    TMP DP  RH WIND       PRES   REMARKS
RUIDOSO        CLEAR     18   5  57 W12       30.13R WCI   5

$$
NMZ527>531-281500-
NORTHEAST HIGHLANDS/NORTHEAST PLAINS

CITY           SKY/WX    TMP DP  RH WIND       PRES   REMARKS
LAS VEGAS      CLEAR     17   0  47 NW3       29.98S
RATON          PTCLDY     1  -3  83 NE7       29.97F WCI -12
CLAYTON        PTCLDY    20   6  55 W8        29.98S WCI  10

$$
NMZ532>537-281500-
EASTCENTRAL PLAINS

CITY           SKY/WX    TMP DP  RH WIND       PRES   REMARKS
TUCUMCARI      PTCLDY    11   8  88 W5        30.05S WCI   3
CANNON AFB     PTCLDY    19  11  72 W15       30.07F WCI   4
CLOVIS AIRPORT PTCLDY    16  12  86 SW9       30.07S WCI   4

$$
NMZ028-029-538-281500-
SOUTHEAST PLAINS

CITY           SKY/WX    TMP DP  RH WIND       PRES   REMARKS
ROSWELL        CLEAR     13   8  81 CALM      30.16S
ARTESIA        CLEAR     21  19  93 SE3       30.19R
CARLSBAD       CLEAR     29  24  82 CALM      30.18S
HOBBS          CLEAR     27  27 100 SW6       30.19R FOG     WCI  20


$$


USA.gov is the U.S. government's official web portal to all federal, state and local government web resources and services.